Lubbock, TX

12:51 PM CDT on August 17, 2019 (GMT -0500)
Lubbock International

Weather History for KLBB - July, 2019

Change the Weather History Date:

Wednesday, July 17, 2019

  Actual Average Record
Temperature  
Mean Temperature 86 °F 80 °F  
Max Temperature 96 °F 93 °F 105 °F (1989)
Min Temperature 76 °F 68 °F 59 °F (1930)
Degree Days  
Heating Degree Days 0 0  
Month to date heating degree days 0 0  
Since 1 June heating degree days 0 2  
Since 1 July heating degree days 0 0  
Cooling Degree Days 21 15  
Month to date cooling degree days 296 255  
Year to date cooling degree days 871 875  
Since 1 June cooling degree days 661 629  
Growing Degree Days 36 (Base 50)    
Moisture  
Dew Point 61 °F    
Average Humidity 48    
Maximum Humidity 69    
Minimum Humidity 26    
Precipitation  
Precipitation 0.00 in 0.06 in 2.20 in (2013)
Month to date precipitation 4.51 1.15  
Year to date precipitation 13.45 10.40  
Snow  
Snow 0.00 in 0.00 in - ()
Month to date snowfall 0.0 0.0  
Since 1 June snowfall 0.0 0.0  
Since 1 July snowfall 0.0 0.0  
Snow Depth 0.00 in    
Sea Level Pressure  
Sea Level Pressure 29.83 in    
Wind  
Wind Speed 14 mph (South)    
Max Wind Speed 23 mph    
Max Gust Speed 29 mph    
Visibility 10 miles    
Events      
T = Trace of Precipitation, MM = Missing Value Source: NWS Daily Summary

Daily Weather History Graph

Daily Weather History Graph

Search for Another Location

Airport or City:

Astronomy

Jul. 17, 2019 Rise Set
Actual Time 6:49 AM CDT 8:57 PM CDT
Civil Twilight 6:20 AM CDT 9:25 PM CDT
Nautical Twilight 5:46 AM CDT 10:00 PM CDT
Astronomical Twilight 5:09 AM CDT 10:37 PM CDT
Moon 9:48 PM CDT 7:23 AM CDT
Length of Visible Light 15h 04m
Length of Day
14h 08m
Full, 99% of the Moon is Illuminated
Jul 17
Full
Jul 24
Last Quarter
Jul 31
New
Aug 7
First Quarter
Aug 15
Full

Hourly Weather History & Observations

Time (CDT) Temp. Heat Index Dew Point Humidity Pressure Visibility Wind Dir Wind Speed Gust Speed Precip Events Conditions
12:53 AM 82.0 °F 82.7 °F 61.0 °F 49% 29.84 in 10.0 mi SSE 12.7 mph - N/A   Scattered Clouds
1:53 AM 79.0 °F - 61.0 °F 54% 29.84 in 10.0 mi SSE 10.4 mph - N/A   Scattered Clouds
2:53 AM 79.0 °F - 61.0 °F 54% 29.84 in 10.0 mi South 9.2 mph - N/A   Scattered Clouds
3:53 AM 79.0 °F - 62.1 °F 56% 29.85 in 10.0 mi South 8.1 mph - N/A   Mostly Cloudy
4:53 AM 79.0 °F - 63.0 °F 58% 29.85 in 10.0 mi SSW 10.4 mph - N/A   Mostly Cloudy
5:53 AM 77.0 °F - 64.0 °F 64% 29.85 in 10.0 mi SSW 11.5 mph - N/A   Mostly Cloudy
6:53 AM 75.9 °F - 64.0 °F 67% 29.86 in 10.0 mi South 10.4 mph - N/A   Scattered Clouds
7:53 AM 77.0 °F - 64.9 °F 66% 29.87 in 10.0 mi SSW 10.4 mph - N/A   Partly Cloudy
8:53 AM 80.1 °F 82.1 °F 66.0 °F 62% 29.88 in 10.0 mi South 18.4 mph - N/A   Partly Cloudy
9:53 AM 82.0 °F 84.1 °F 66.0 °F 58% 29.89 in 10.0 mi South 19.6 mph - N/A   Partly Cloudy
10:53 AM 84.9 °F 87.1 °F 66.0 °F 53% 29.90 in 10.0 mi South 17.3 mph 20.7 mph N/A   Partly Cloudy
11:53 AM 88.0 °F 89.6 °F 64.9 °F 46% 29.88 in 10.0 mi SSW 12.7 mph - N/A   Partly Cloudy
12:53 PM 91.0 °F 91.5 °F 62.1 °F 38% 29.87 in 10.0 mi South 20.7 mph - N/A   Partly Cloudy
1:53 PM 91.9 °F 91.8 °F 61.0 °F 35% 29.85 in 10.0 mi South 17.3 mph 27.6 mph N/A   Partly Cloudy
2:53 PM 95.0 °F 94.8 °F 60.1 °F 31% 29.83 in 10.0 mi South 19.6 mph 26.5 mph N/A   Partly Cloudy
3:53 PM 95.0 °F 94.8 °F 60.1 °F 31% 29.81 in 10.0 mi SSE 16.1 mph 23.0 mph N/A   Partly Cloudy
4:53 PM 95.0 °F 93.7 °F 57.0 °F 28% 29.79 in 10.0 mi SSE 16.1 mph 24.2 mph N/A   Partly Cloudy
5:53 PM 95.0 °F 93.4 °F 55.9 °F 27% 29.77 in 10.0 mi South 17.3 mph - N/A   Partly Cloudy
6:53 PM 93.9 °F 92.0 °F 55.0 °F 27% 29.77 in 10.0 mi South 12.7 mph - N/A   Partly Cloudy
7:53 PM 93.0 °F 90.6 °F 53.1 °F 26% 29.77 in 10.0 mi SSE 16.1 mph - N/A   Partly Cloudy
8:53 PM 90.0 °F 87.7 °F 54.0 °F 29% 29.77 in 10.0 mi South 15.0 mph - N/A   Partly Cloudy
10:53 PM 84.9 °F 84.4 °F 59.0 °F 41% 29.80 in 10.0 mi SSE 18.4 mph - N/A   Partly Cloudy
11:53 PM 82.9 °F 82.8 °F 59.0 °F 44% 29.79 in 10.0 mi SSE 17.3 mph - N/A   Partly Cloudy